DELTA 1 DEB, 10250

Orbit data source: Space-Track

DELTA 1 DEB, 10250 is space debris in LEO originally from a launch on Thu, 14 Jul 1977 UTC launched from the Air Force Eastern Test Range (AFETR). Debris objects in space refer to the collection of defunct objects orbiting the Earth. Examples of debris include non-operational satellites, rocket bodies, and fragments generated from explosions, collisions, or faulty payload assembly.

Loading next visibility...
Identifier
10250, 1977-065CB
Orbit
LEO
Country
Flag of USUS
Related business
Manufacturer
Unknown
Mission
Spacecraft
Bus & Motor
Unknown
Mass
Unknown
Launch date (UTC)
1977-07-14 (49 years ago)
Launch vehicle
Unknown
Launch site
Air Force Eastern Test Range (AFETR)
Object type
Payload
Rocket body
Debris
Shape & HBR
Unknown shape, 0.2 m
Radar Cross Section
Medium (>0.1 m² and <1 m²)

Expand to show TLE details & history
Last TLE update: 11 hours ago

TLE from 11 hours ago
0 DELTA 1 DEB
1 10250U 77065CB  26262.96005971  .00001365  00000-0  24496-3 0  9991
2 10250  29.0801 356.1755 0529538 315.0932  40.7952 13.98993953321425
Epoch: 2026-09-19T23:02Z
TLE epoch observation values (Epoch: 2026-09-19T23:02:29.158Z)
Latitude
-0.00003°
Longitude
11.69285°
Altitude
613.357 km
Speed
7.7 km/s
True Right ascension
23h 44m 42s
True Declination
0° 00' 00"
Sunlit
Object was in full shadow at epoch
Visualization orbit readout
Latitude
Unknown
Longitude
Unknown
Altitude
Unknown
Speed
Unknown
Apparent Right ascension
Unknown
Apparent Declination
Unknown
Sunlit
N/A
Visualization observer readout
Local Sidereal Time
02:41:30
Azimuth
Unknown
Elevation
Unknown
Doppler factor
Unknown
Orbital elements
Apogee altitude
1,286.681 km
Perigee altitude
515.743 km
Semi-major axis
7,279.349 km
Eccentricity
0.05295
Inclination
29.0801°
RAAN
356.1755°
Arg. of periapsis
315.0932°
True anomaly
44.96478°
Mean anomaly
40.7952°
Eccentric anomaly
42.85893°
Mean motion
3.49466 °/min
Orbital period
103.01 mins
BSTAR
0.00024496
Loading maneuver chart data...
Computing Atmospheric mass density...

Documentation

Showing up to 5 results
|